N1SU-13 Weather Reports


Display with metric or nautical units.
time (UTC)temp
F
wind
direction
speed
MPH
gust
MPH
rain 1hr
in
rain 24hr
in
rain mn
in
humidity
%
barometer
mb
20260504231429 78 0.0 0.0 0.00 0.00 0.00 36 1007.4
20260504230343 78 0.0 0.0 0.00 0.00 0.00 35 1007.4
20260504225423 77 0.0 0.0 0.00 0.00 0.00 36 1007.6
20260504224410 77 0.0 0.0 0.00 0.00 0.00 37 1007.7
20260504223240 77 0.0 0.0 0.00 0.00 0.00 37 1007.9
20260504222244 76 0.0 0.0 0.00 0.00 0.00 36 1008.0
20260504221213 76 0.0 0.0 0.00 0.00 0.00 37 1008.0
20260504220210 76 0.0 0.0 0.00 0.00 0.00 36 1008.1
20260504215251 76 0.0 0.0 0.00 0.00 0.00 38 1008.1
20260504214150 76 0.0 0.0 0.00 0.00 0.00 38 1008.2
20260504213219 76 0.0 0.0 0.00 0.00 0.00 40 1008.0
20260504212220 76 0.0 0.0 0.00 0.00 0.00 40 1008.2
20260504211214 76 0.0 0.0 0.00 0.00 0.00 40 1008.1
20260504210053 75 0.0 0.0 0.00 0.00 0.00 40 1008.2
20260504205110 75 0.0 0.0 0.00 0.00 0.00 42 1008.3
20260504204113 75 0.0 0.0 0.00 0.00 0.00 42 1008.4
20260504203009 75 0.0 0.0 0.00 0.00 0.00 42 1008.4
20260504201835 74 0.0 0.0 0.00 0.00 0.00 42 1008.5
20260504200834 74 0.0 0.0 0.00 0.00 0.00 43 1008.3
20260504195829 74 0.0 0.0 0.00 0.00 0.00 44 1008.4
20260504194913 74 0.0 0.0 0.00 0.00 0.00 44 1008.5
20260504193843 73 0.0 0.0 0.00 0.00 0.00 44 1008.7
20260504192733 73 0.0 0.0 0.00 0.00 0.00 44 1008.7
20260504191641 72 0.0 0.0 0.00 0.00 0.00 44 1008.9
20260504190644 72 0.0 0.0 0.00 0.00 0.00 44 1009.0
20260504185540 71 0.0 0.0 0.00 0.00 0.00 44 1009.0
20260504184406 71 0.0 0.0 0.00 0.00 0.00 44 1009.1
20260504183338 70 0.0 0.0 0.00 0.00 0.00 47 1009.2
20260504182417 69 0.0 0.0 0.00 0.00 0.00 46 1009.2
20260504181336 69 0.0 0.0 0.00 0.00 0.00 48 1009.3
20260504180300 69 0.0 0.0 0.00 0.00 0.00 49 1009.3
20260504175132 68 0.0 0.0 0.00 0.00 0.00 51 1009.5
20260504174016 67 0.0 0.0 0.00 0.00 0.00 50 1009.4
20260504172902 66 0.0 0.0 0.00 0.00 0.00 50 1009.3
20260504171736 66 0.0 0.0 0.00 0.00 0.00 51 1009.3
20260504170814 65 0.0 0.0 0.00 0.00 0.00 51 1009.5
20260504160359 61 0.0 0.0 0.00 0.00 0.00 58 1009.5
20260504151147 58 0.0 0.0 0.00 0.00 0.00 60 1009.0
20260504140918 56 0.0 0.0 0.00 0.00 0.00 65 1008.9
20260504130658 56 0.0 0.0 0.00 0.00 0.00 64 1008.4
20260504120256 55 0.0 0.0 0.00 0.00 0.00 62 1008.4
20260504100251 58 0.0 0.0 0.00 0.00 0.00 62 1008.1
20260504081659 60 0.0 0.0 0.00 0.00 0.00 61 1008.2
20260504080530 60 0.0 0.0 0.00 0.00 0.00 61 1008.2
20260504070125 62 0.0 0.0 0.00 0.00 0.00 59 1008.2
20260504050639 67 0.0 0.0 0.00 0.00 0.00 55 1008.2
20260504045459 68 0.0 0.0 0.00 0.00 0.00 55 1008.0
20260504044527 69 0.0 0.0 0.00 0.00 0.00 54 1008.1
20260504043516 70 0.0 0.0 0.00 0.00 0.00 55 1008.0
20260504042544 70 0.0 0.0 0.00 0.00 0.00 52 1007.9
20260504041520 71 0.0 0.0 0.00 0.00 0.00 53 1007.8
20260504040549 72 0.0 0.0 0.00 0.00 0.00 53 1007.7
20260504035416 73 0.0 0.0 0.00 0.00 0.00 52 1007.5
20260504034254 74 0.0 0.0 0.00 0.00 0.00 50 1007.4
20260504033121 76 0.0 0.0 0.00 0.00 0.00 48 1007.2
20260504032150 77 0.0 0.0 0.00 0.00 0.00 46 1007.1
20260504031043 78 0.0 0.0 0.00 0.00 0.00 45 1006.9
20260504030050 81 0.0 0.0 0.00 0.00 0.00 40 1006.8
20260504025002 84 0.0 0.0 0.00 0.00 0.00 36 1006.5
20260504023832 85 0.0 0.0 0.00 0.00 0.00 33 1006.4
20260504022834 87 0.0 0.0 0.00 0.00 0.00 33 1006.3
20260504021757 87 0.0 0.0 0.00 0.00 0.00 33 1006.4
20260504020830 86 0.0 0.0 0.00 0.00 0.00 33 1006.4
20260504015903 86 0.0 0.0 0.00 0.00 0.00 32 1006.4
20260504014839 86 0.0 0.0 0.00 0.00 0.00 33 1006.5
20260504013809 86 0.0 0.0 0.00 0.00 0.00 31 1006.5
20260504012812 85 0.0 0.0 0.00 0.00 0.00 33 1006.6
20260504011719 83 0.0 0.0 0.00 0.00 0.00 35 1006.8
20260504010718 84 0.0 0.0 0.00 0.00 0.00 36 1006.8
20260504005628 83 0.0 0.0 0.00 0.00 0.00 37 1006.9
20260504004609 82 0.0 0.0 0.00 0.00 0.00 38 1007.1
20260504003549 82 0.0 0.0 0.00 0.00 0.00 38 1007.1
20260504002533 82 0.0 0.0 0.00 0.00 0.00 38 1007.2
20260504001450 82 0.0 0.0 0.00 0.00 0.00 38 1007.4
20260504000510 82 0.0 0.0 0.00 0.00 0.00 38 1007.4
20260503235458 81 0.0 0.0 0.00 0.00 0.00 38 1007.6
20260503234521 81 0.0 0.0 0.00 0.00 0.00 39 1007.7
20260503233342 81 0.0 0.0 0.00 0.00 0.00 39 1007.7
20260503232227 80 0.0 0.0 0.00 0.00 0.00 40 1008.1